CAPE
0 0 0 0 0 0 0 0 0 0 0 0 0 0 0 0 0 0 0 0 0 0 0 0 0 0 0 0 0 0 0 0 0 0 0 0 0 0 0 0 0 0 0 0
0 0 0 0 0 0 0 0 0 0 0 0 0 0 0 0 0 0 0 0 0 0 0 0 0 0 0 0 0 0 0 0 0 0 0 0 0 0 0 0 0 0 0 0
0 0 0 0 0 0 0 0 0 0 0 0 0 0 0 0 0 0 0 0 0 0 0 0 0 0 0 0 0 0 0 0 0 0 0 0 0 0 0 0 0 0 0 0
0 0 0 0 0 0 0 0 0 0 0 0 0 0 0 0 0 0 0 0 0 0 0 0 0 0 0 0 0 0 0 0 0 0 0 0 0 0 0 0 0 0 0 0
0 0 0 0 0 0 0 0 0 0 0 0 0 0 0 0 0 0 0 0 0 0 0 0 0 0 0 0 0 0 0 0 0 0 0 0 0 0 0 0 0 0 0 0
0 0 0 0 0 0 0 0 0 0 0 0 0 0 0 0 0 0 0 0 0 0 0 0 0 0 0 0 0 0 0 0 0 0 0 0 0 0 0 0 0 0 0 0
0 0 0 0 0 0 0 0 0 0 0 0 0 0 0 0 0 0 0 0 0 0 0 0 0 0 0 0 0 0 0 0 0 0 0 0 0 0 0 0 0 0 0 0
0 0 0 0 0 0 0 0 0 0 0 0 0 0 0 0 0 0 0 0 0 0 0 0 0 0 0 0 0 0 0 0 0 0 0 0 0 0 0 0 0 0 0 0
0 0 0 0 0 0 0 0 0 0 0 0 0 0 0 0 0 0 0 0 0 0 0 0 0 0 0 0 0 0 0 0 0 0 0 0 0 0 0 0 0 0 0 0
0 0 1 0 0 0 0 0 0 0 0 0 0 0 0 0 0 0 0 0 0 0 0 0 0 0 0 0 0 0 0 0 0 0 0 0 0 0 0 0 0 0 0 0
0 0 0 0 0 0 0 0 0 0 0 0 0 0 0 0 0 0 0 0 0 0 0 0 0 0 0 0 0 0 0 0 0 0 0 0 0 0 0 0 0 0 0 0
0 0 0 0 0 0 0 0 0 0 0 0 0 0 0 0 0 0 0 0 0 0 0 0 0 0 0 0 0 0 0 0 0 0 0 0 0 0 0 0 0 0 0 0
0 0 0 0 0 0 0 0 0 0 0 0 0 0 0 0 0 0 0 0 0 0 0 0 0 0 0 0 0 0 0 0 0 0 0 0 0 0 0 0 0 0 0 0
0 0 0 0 0 0 0 0 0 0 0 0 0 0 0 0 0 0 0 0 0 0 0 0 0 0 0 0 0 0 0 0 0 0 0 0 0 0 0 0 0 0 0 0
0 0 0 0 0 0 0 0 0 0 0 0 0 0 0 0 0 0 0 0 0 0 0 0 0 0 0 0 0 0 0 0 0 0 0 0 0 0 0 0 0 0 0 0
0 0 0 0 0 0 0 0 0 0 0 0 0 0 0 0 0 0 0 0 0 0 0 0 0 0 0 0 0 0 0 0 0 0 0 0 0 0 0 0 0 0 0 0
0 0 0 0 0 0 0 0 0 0 0 0 0 0 0 0 0 0 0 0 0 0 0 0 0 0 0 0 0 0 0 0 0 0 0 0 0 0 0 0 0 0 0 0
0 0 0 0 0 0 0 0 0 0 0 0 0 0 0 0 0 0 0 0 0 0 0 0 0 0 0 0 0 0 0 0 0 0 0 0 0 0 0 0 0 0 0 0
0 0 0 0 0 0 0 0 0 0 0 0 0 0 0 0 0 0 0 0 0 0 0 0 0 0 0 0 0 0 0 0 0 0 0 0 0 0 0 0 0 0 0 0
0 0 0 0 0 0 0 0 0 0 0 0 0 0 0 0 0 0 0 0 0 0 0 0 0 0 0 0 0 0 0 0 0 0 0 0 0 0 0 0 0 0 0 0
0 0 0 0 0 0 0 0 0 0 0 0 0 0 0 0 0 0 0 0 0 0 0 0 0 0 0 0 0 0 0 0 0 0 0 0 0 0 0 0 0 0 0 0
0 0 0 0 0 0 0 0 0 0 0 0 0 0 0 0 0 0 0 0 0 0 0 0 0 0 0 0 0 0 0 0 0 0 0 0 0 0 0 0 0 0 0 0
0 0 0 0 0 0 0 0 0 0 0 0 0 0 0 0 0 0 0 0 0 0 0 0 0 0 0 0 0 0 0 0 0 0 0 0 0 0 0 0 0 0 0 0
0 0 0 0 0 0 0 0 0 0 0 0 0 0 0 0 0 0 0 0 0 0 0 0 0 0 0 0 0 0 0 0 0 0 0 0 0 0 0 0 0 0 0 0
0 0 0 0 0 0 0 0 0 0 0 0 0 0 0 0 0 0 0 0 0 0 0 0 0 0 0 0 0 0 0 0 0 0 0 0 0 0 0 0 0 0 0 0
0 0 0 0 0 0 0 0 0 0 0 0 0 0 0 0 0 0 0 0 0 0 0 0 0 0 0 0 0 0 0 0 0 0 0 0 0 0 0 0 0 0 0 0
CIN
-0 -0 -0 -0 -0 -0 -0 -0 -0 -0 -0 -0 -0 -0 -0 -0 -0 -0 -0 -0 -0 -0 -0 -0 -0 -0 -0 -0 -0 -0 -0 -0 -0 -0 -0 -0 -0 -0 -0 -0 -0 -0 -0 -0
-0 -0 -0 -0 -0 -0 -0 -0 -0 -0 -0 -0 -0 -0 -0 -0 -0 -0 -0 -0 -0 -0 -0 -0 -0 -0 -0 -0 -0 -0 -0 -0 -0 -0 -0 -0 -0 -0 -0 -0 -0 -0 -0 -0
-0 -0 -0 -0 -0 -0 -0 -0 -0 -0 -0 -0 -0 -0 -0 -0 -0 -0 -0 -0 -0 -0 -0 -0 -0 -0 -0 -0 -0 -0 -0 -0 -0 -0 -0 -0 -0 -0 -0 -0 -0 -0 -0 -0
-0 -0 -0 -0 -0 -0 -0 -0 -0 -0 -0 -0 -0 -0 -0 -0 -0 -0 -0 -0 -0 -0 -0 -0 -0 -0 -0 -0 -0 -0 -0 -0 -0 -0 -0 -0 -0 -0 -0 -0 -0 -0 -0 -0
-0 -0 -0 -0 -0 -0 -0 -0 -0 -0 -0 -0 -0 -0 -0 -0 -0 -0 -0 -0 -0 -0 -0 -0 -0 -0 -0 -0 -0 -0 -0 -0 -0 -0 -0 -0 -0 -0 -0 -0 -0 -0 -0 -0
-0 -0 -0 -0 -0 -0 -0 -0 -0 -0 -0 -0 -0 -0 -0 -0 -0 -0 -0 -0 -0 -0 -0 -0 -0 -0 -0 -0 -0 -0 -0 -0 -0 -0 -0 -0 -0 -0 -0 -0 -0 -0 -0 -0
-0 -0 -0 -0 -0 -0 -0 -0 -0 -0 -0 -0 -0 -0 -0 -0 -0 -0 -0 -0 -0 -0 -0 -0 -0 -0 -0 -0 -0 -0 -0 -0 -0 -0 -0 -0 -0 -0 -0 -0 -0 -0 -0 -0
-0 -0 -0 -0 -0 -0 -0 -0 -0 -0 -0 -0 -0 -0 -0 -0 -0 -0 -0 -0 -0 -0 -0 -0 -0 -0 -0 -0 -0 -0 -0 -0 -0 -0 -0 -0 -0 -0 -0 -0 -0 -0 -0 -0
-0 -0 -0 -0 -0 -0 -0 -0 -0 -0 -0 -0 -0 -0 -0 -0 -0 -0 -0 -0 -0 -0 -0 -0 -0 -0 -0 -0 -0 -0 -0 -0 -0 -0 -0 -0 -0 -0 -0 -0 -0 -0 -0 -0
-0 -0 -0 -0 -0 -0 -0 -0 -0 -0 -0 -0 -0 -0 -0 -0 -0 -0 -0 -0 -0 -0 -0 -0 -0 -0 -0 -0 -0 -0 -0 -0 -0 -0 -0 -0 -0 -0 -0 -0 -0 -0 -0 -0
-0 -0 -0 -0 -0 -0 -0 -0 -0 -0 -0 -0 -0 -0 -0 -0 -0 -0 -0 -0 -0 -0 -0 -0 -0 -0 -0 -0 -0 -0 -0 -0 -0 -0 -0 -0 -0 -0 -0 -0 -0 -0 -0 -0
-0 -0 -0 -0 -0 -0 -0 -0 -0 -0 -0 -0 -0 -0 -0 -0 -0 -0 -0 -0 -0 -0 -0 -0 -0 -0 -0 -0 -0 -0 -0 -0 -0 -0 -0 -0 -0 -0 -0 -0 -0 -0 -0 -0
-0 -0 -0 -0 -0 -0 -0 -0 -0 -0 -0 -0 -0 -0 -0 -0 -0 -0 -0 -0 -0 -0 -0 -0 -0 -0 -0 -0 -0 -0 -0 -0 -0 -0 -0 -0 -0 -0 -0 -0 -0 -0 -0 -0
-0 -0 -0 -0 -0 -0 -0 -0 -0 -0 -0 -0 -0 -0 -0 -0 -0 -0 -0 -0 -0 -0 -0 -0 -0 -0 -0 -0 -0 -0 -0 -0 -0 -0 -0 -0 -0 -0 -0 -0 -0 -0 -0 -0
-0 -0 -0 -0 -0 -0 -0 -0 -0 -0 -0 -0 -0 -0 -0 -0 -0 -0 -0 -0 -0 -0 -0 -0 -0 -0 -0 -0 -0 -0 -0 -0 -0 -0 -0 -0 -0 -0 -0 -0 -0 -0 -0 -0
-0 -0 -0 -0 -0 -0 -0 -0 -0 -0 -0 -0 -0 -0 -0 -0 -0 -0 -0 -0 -0 -0 -0 -0 -0 -0 -0 -0 -0 -0 -0 -0 -0 -0 -0 -0 -0 -0 -0 -0 -0 -0 -0 -0
-0 -0 -0 -0 -0 -0 -0 -0 -0 -0 -0 -0 -0 -0 -0 -0 -0 -0 -0 -0 -0 -0 -0 -0 -0 -0 -0 -0 -0 -0 -0 -0 -0 -0 -0 -0 -0 -0 -0 -0 -0 -0 -0 -0
-0 -0 -0 -0 -0 -0 -0 -0 -0 -0 -0 -0 -0 -0 -0 -0 -0 -0 -0 -0 -0 -0 -0 -0 -0 -0 -0 -0 -0 -0 -0 -0 -0 -0 -0 -0 -0 -0 -0 -0 -0 -0 -0 -0
-0 -0 -0 -0 -0 -0 -0 -0 -0 -0 -0 -0 -0 -0 -0 -0 -0 -0 -0 -0 -0 -0 -0 -0 -0 -0 -0 -0 -0 -0 -0 -0 -0 -0 -0 -0 -0 -0 -0 -0 -0 -0 -0 -0
-0 -0 -0 -0 -0 -0 -0 -0 -0 -0 -0 -0 -0 -0 -0 -0 -0 -0 -0 -0 -0 -0 -0 -0 -0 -0 -0 -0 -0 -0 -0 -0 -0 -0 -0 -0 -0 -0 -0 -0 -0 -0 -0 -0
-0 -0 -0 -0 -0 -0 -0 -0 -0 -0 -0 -0 -0 -0 -0 -0 -0 -0 -0 -0 -0 -0 -0 -0 -0 -0 -0 -0 -0 -0 -0 -0 -0 -0 -0 -0 -0 -0 -0 -0 -0 -0 -0 -0
-0 -0 -0 -0 -0 -0 -0 -0 -0 -0 -0 -0 -0 -0 -0 -0 -0 -0 -0 -0 -0 -0 -0 -0 -0 -0 -0 -0 -0 -0 -0 -0 -0 -0 -0 -0 -0 -0 -0 -0 -0 -0 -0 -0
-0 -0 -0 -0 -0 -0 -0 -0 -0 -0 -0 -0 -0 -0 -0 -0 -0 -0 -0 -0 -0 -0 -0 -0 -0 -0 -0 -0 -0 -0 -0 -0 -0 -0 -0 -0 -0 -0 -0 -0 -0 -0 -0 -0
-0 -0 -0 -0 -0 -0 -0 -0 -0 -0 -0 -0 -0 -0 -0 -0 -0 -0 -0 -0 -0 -0 -0 -0 -0 -0 -0 -0 -0 -0 -0 -0 -0 -0 -0 -0 -0 -0 -0 -0 -0 -0 -0 -0
-0 -0 -0 -0 -0 -0 -0 -0 -0 -0 -0 -0 -0 -0 -0 -0 -0 -0 -0 -0 -0 -0 -0 -0 -0 -0 -0 -0 -0 -0 -0 -0 -0 -0 -0 -0 -0 -0 -0 -0 -0 -0 -0 -0
-0 -0 -0 -0 -0 -0 -0 -0 -0 -0 -0 -0 -0 -0 -0 -0 -0 -0 -0 -0 -0 -0 -0 -0 -0 -0 -0 -0 -0 -0 -0 -0 -0 -0 -0 -0 -0 -0 -0 -0 -0 -0 -0 -0
Wind_Speed
32 37 44 37 32 34 35 36 37 33 28 31 36 38 34 30 29 29 27 25 23 22 21 21 21 19 17 14 10 9 10 12 13 17 19 22 24 24 25 26 27 27 27 28
37 50 39 35 35 36 38 39 39 34 29 32 38 43 36 34 32 29 26 23 21 20 19 19 19 18 16 13 10 10 11 12 15 17 20 21 23 24 26 25 25 24 25 25
46 42 37 38 39 40 42 42 39 39 31 32 39 49 39 32 29 25 23 20 20 18 17 17 17 16 14 13 12 11 12 14 16 17 19 22 23 25 27 27 26 26 26 26
42 45 43 40 43 39 46 37 37 36 36 43 30 50 34 28 26 22 19 18 17 15 16 16 16 15 14 14 13 13 14 14 16 17 20 22 24 26 26 27 28 28 27 26
42 36 38 42 41 33 39 29 30 31 33 37 36 38 39 27 28 23 18 16 15 14 14 15 16 16 16 15 15 15 15 15 16 17 18 20 21 22 24 26 28 28 27 25
39 32 31 35 32 28 22 26 27 28 31 42 37 34 44 29 28 25 17 14 12 12 14 15 16 16 16 16 16 16 16 16 17 17 18 18 19 20 22 24 26 26 25 23
39 39 29 27 28 23 26 26 34 36 37 42 29 29 34 27 23 21 13 11 9 11 13 15 16 18 17 17 17 17 17 17 16 16 17 16 17 18 20 23 24 24 23 22
47 49 37 29 32 32 29 32 35 40 40 37 27 33 33 25 23 20 12 8 9 11 13 15 17 18 19 19 19 18 17 17 16 16 17 16 15 14 16 18 20 21 21 21
44 46 31 30 31 27 31 34 27 29 28 32 31 33 34 22 18 14 10 10 10 11 13 15 17 18 19 20 20 18 18 16 16 16 17 17 15 13 13 15 17 17 18 20
34 42 32 30 29 32 33 26 32 31 36 39 35 35 30 20 16 13 12 11 10 11 13 15 17 19 21 21 21 19 18 16 16 16 17 15 16 16 12 13 14 14 20 23
29 33 32 26 37 37 32 34 32 30 31 33 35 33 23 22 13 11 9 9 9 12 14 16 19 20 22 22 22 20 17 16 16 16 16 16 18 16 16 15 20 22 24 22
26 27 38 37 29 29 31 34 34 36 35 32 30 30 15 16 12 8 8 8 10 12 15 18 19 21 22 23 23 22 20 19 18 17 16 15 17 16 16 20 22 22 21 23
24 27 28 31 31 30 34 31 30 28 27 35 31 27 20 16 12 10 8 10 12 14 16 19 20 22 24 24 24 22 21 21 22 18 17 16 15 18 19 22 22 22 24 24
26 29 32 35 29 26 33 30 27 29 34 31 32 26 19 15 12 11 12 13 15 16 17 20 22 24 25 25 24 23 22 23 24 21 18 16 18 21 23 22 22 23 21 21
27 33 28 26 25 26 31 29 26 28 31 32 32 30 30 20 15 13 14 17 17 19 20 21 23 24 25 25 24 23 22 23 23 22 20 18 22 22 24 24 22 22 21 20
26 30 28 31 27 26 28 26 28 31 32 36 36 37 24 21 18 16 15 16 19 21 20 21 22 23 25 25 26 25 24 24 23 22 23 23 23 23 25 24 24 22 20 22
23 23 25 31 27 27 36 35 28 31 29 30 37 34 23 24 19 17 16 17 19 19 18 19 21 21 23 24 25 25 25 25 23 23 22 23 24 25 25 26 25 25 25 25
18 20 22 25 23 33 25 20 24 29 28 29 29 27 21 22 19 18 17 14 15 15 16 18 20 22 23 24 25 25 24 24 24 24 25 25 26 28 28 27 28 29 28 29
18 19 24 29 32 30 27 24 23 25 30 29 33 28 23 18 17 21 14 13 13 14 17 18 20 21 22 23 24 24 24 24 25 26 26 27 28 29 30 31 31 31 31 32
19 18 25 26 32 35 26 22 22 22 33 24 23 21 17 15 23 23 10 11 13 15 16 17 19 20 21 23 24 23 24 24 26 27 28 28 28 29 30 31 32 31 32 33
23 25 29 30 33 31 24 19 15 26 26 20 19 18 12 16 17 14 8 11 13 14 15 17 18 19 21 22 23 23 24 25 26 28 28 28 28 29 29 30 31 32 33 33
21 22 24 25 29 34 18 17 25 23 18 18 17 13 8 10 10 9 10 11 12 13 15 17 18 20 20 22 23 24 25 26 27 28 28 28 28 28 29 30 31 31 31 32
21 19 21 21 22 19 14 18 18 18 18 16 16 12 9 9 10 10 10 11 12 14 15 17 19 20 21 23 24 25 26 27 27 28 28 28 28 28 29 29 30 30 30 30
20 17 20 20 19 19 18 19 19 17 18 16 16 13 11 12 9 10 10 11 12 14 16 18 19 21 22 22 23 24 25 26 27 27 27 27 28 29 28 28 27 28 29 30
19 16 19 22 25 24 25 24 24 21 20 17 16 15 13 10 10 10 10 11 12 14 16 18 19 21 22 23 24 24 25 26 27 27 27 27 27 28 28 28 28 28 28 28
18 20 22 23 22 21 24 23 22 19 17 16 14 14 14 12 9 9 10 11 12 14 16 18 20 22 23 24 24 24 24 25 26 27 27 27 27 28 28 29 30 28 28 28
Wind_Direction
259 258 255 255 257 273 275 276 278 282 287 286 283 283 286 289 289 291 294 298 301 304 311 316 321 325 325 321 310 298 295 300 304 308 309 309 309 312 313 314 314 312 310 307
258 256 262 264 265 267 271 273 275 283 286 286 285 283 286 287 288 287 287 291 296 301 306 316 324 330 334 334 326 314 307 306 308 310 312 313 313 313 312 313 313 315 315 313
255 263 263 259 262 264 266 268 273 278 285 287 288 284 286 288 287 286 287 289 292 295 301 310 320 329 336 335 330 323 317 314 314 316 316 315 314 312 309 308 307 309 312 312
261 262 263 262 261 260 265 271 272 275 278 278 288 283 287 290 288 287 283 283 287 294 303 311 317 323 326 327 329 327 324 321 321 320 317 315 314 311 310 308 306 305 307 307
260 261 260 259 262 262 267 276 271 274 274 280 279 283 289 290 285 281 276 279 284 293 304 311 316 321 323 326 325 325 325 325 324 322 321 319 319 317 315 311 306 305 305 306
261 269 265 265 265 260 263 271 276 278 277 274 275 276 283 283 285 288 273 273 279 293 307 314 319 321 322 326 327 329 329 327 326 324 321 321 320 319 317 314 310 307 307 307
258 260 267 266 260 260 257 261 268 271 269 272 282 274 274 290 295 297 268 264 277 298 308 314 317 318 321 324 326 329 331 328 328 326 324 326 324 323 319 316 313 309 309 306
252 257 252 257 260 260 254 257 263 269 270 275 279 275 284 292 288 294 279 272 288 301 310 315 317 319 320 325 328 332 333 332 331 328 326 328 330 331 329 325 321 315 312 307
255 257 261 253 259 256 259 259 268 272 279 278 277 282 287 289 289 283 274 280 289 302 312 317 321 324 325 328 332 335 337 337 336 332 329 328 332 335 335 331 324 322 317 309
260 259 261 260 259 260 260 256 263 266 269 273 278 280 281 285 272 269 270 276 290 303 311 317 323 325 327 331 333 337 340 339 338 334 332 336 331 332 337 334 329 326 310 293
258 259 261 257 254 252 256 257 263 266 269 272 280 284 289 280 264 252 261 275 287 299 308 316 322 326 329 334 337 337 340 338 336 335 334 336 329 333 330 328 311 301 291 296
257 265 257 257 270 263 261 259 257 261 266 270 278 282 300 292 283 267 263 279 293 303 310 317 321 324 326 329 333 336 339 337 332 332 334 337 330 334 329 315 303 294 296 286
250 258 260 263 268 264 258 259 258 267 272 265 267 278 291 293 291 277 266 285 297 305 312 316 320 321 321 323 326 331 339 335 329 331 331 332 333 323 317 304 296 291 285 285
251 257 259 259 267 265 260 256 253 257 262 265 263 275 288 288 283 277 278 291 297 305 310 315 317 319 320 321 322 326 331 331 327 329 329 330 323 314 302 300 295 293 296 295
256 259 261 269 272 269 263 259 249 250 257 263 271 268 275 280 276 274 281 290 298 304 308 311 314 315 317 318 319 323 326 327 327 327 324 324 310 308 296 296 299 299 302 300
258 263 260 262 269 270 264 262 259 256 259 262 265 269 286 290 283 279 280 289 297 303 310 314 316 317 316 315 314 316 320 323 324 323 320 316 310 305 297 297 298 302 305 299
252 258 261 256 266 267 262 258 260 262 264 266 267 275 283 283 282 281 282 290 296 304 313 318 321 323 322 320 316 314 315 319 322 322 321 316 311 304 301 298 298 299 299 297
252 253 260 255 261 259 276 285 271 266 275 267 277 282 285 288 287 292 296 296 301 308 314 318 322 322 322 323 319 318 318 318 319 318 315 313 308 303 300 300 297 296 296 293
265 262 261 257 258 271 273 278 276 274 277 277 274 277 284 289 292 291 305 307 307 313 317 322 325 324 324 324 323 323 323 322 319 316 314 311 308 304 301 298 298 296 295 294
272 278 267 266 263 262 278 289 286 289 277 294 290 283 279 285 284 290 297 307 311 317 322 326 328 329 329 328 327 326 324 325 321 318 316 313 310 307 304 302 300 300 298 296
269 270 263 265 266 272 285 295 308 277 284 310 307 298 285 285 297 308 312 315 318 324 329 331 333 332 332 332 330 329 328 325 323 320 318 318 315 311 309 307 305 303 301 299
275 272 271 270 271 269 294 297 281 294 309 317 324 323 311 311 312 313 314 316 322 327 330 333 333 333 335 333 331 329 327 326 324 321 320 319 318 318 315 311 310 308 306 305
281 283 283 281 282 297 312 305 300 307 310 320 324 324 318 313 310 311 312 319 324 327 330 332 333 332 332 332 332 328 327 327 325 324 322 322 321 321 320 318 315 313 313 311
287 295 291 292 299 303 300 299 299 307 310 314 313 314 312 310 311 313 318 320 328 331 332 333 333 332 332 333 333 332 331 329 327 326 326 325 324 324 325 325 323 319 316 315
291 297 293 290 289 291 288 294 294 298 300 305 307 308 307 310 310 314 320 325 332 334 335 335 334 333 333 333 333 333 333 331 330 328 327 327 328 328 326 326 325 323 321 320
296 295 290 289 297 299 300 303 303 300 300 301 303 304 305 306 310 314 320 329 334 337 337 336 335 334 333 333 332 333 333 332 330 329 330 331 330 328 328 326 323 326 324 323